#timestamp,LO_Frequency,Hit,StdDev 
1649815215.1,286046998.4,N
1649815216.0,286046998.4,N
1649815235.8,286046998.5,N
1649815255.7,286046998.6,N
1649815275.5,286046999.6,N
1649815295.3,286046996.9,N
1649815315.2,286046996.7,N
1649815335.0,286046997.8,N
1649815335.9,286046997.8,N
1649815355.7,286046996.1,N
1649815375.6,286046996.4,N
1649815395.4,286046996.4,N
1649815415.3,286046995.6,N
1649815435.1,286046996.0,N
1649815436.0,286046996.0,N
1649815455.8,286046995.7,N
1649815475.7,286046995.7,N
1649815495.5,286046996.0,N
1649815515.3,286046998.0,N
1649815535.2,286046995.4,N
1649815555.0,286046997.8,N
1649815555.9,286046997.8,N
1649815575.8,286046994.9,N
1649815595.6,286046995.2,N
1649815615.4,286046997.7,N
1649815635.3,286046999.3,N
1649815655.1,286046999.4,N
1649815675.8,286046997.3,N
1649815695.7,286046997.1,N
1649815715.5,286046997.3,N
1649815735.4,286046999.2,N
1649815755.2,286046999.2,N
1649815775.0,286046999.2,N
1649815775.9,286046999.2,N
1649815795.8,286046999.2,N
1649815815.6,286046997.5,N
1649815835.4,286046995.3,Y
1649815855.3,286047000.4,P
1649815875.1,286047000.5,N
1649815895.9,286046998.3,N
1649815915.7,286047000.8,N
1649815935.5,286046999.9,N
1649815955.4,286046998.5,N
1649815975.2,286047000.7,N
1649815995.0,286047001.2,N
1649815995.9,286047001.2,N
1649816015.8,286046998.4,N
1649816035.6,286046998.4,N
1649816055.4,286046998.6,N
1649816075.3,286046998.2,N
1649816095.1,286046998.4,N
1649816115.9,286046999.3,N
1649816135.7,286046998.8,N
1649816155.5,286047001.2,N
1649816175.4,286047000.8,N
1649816195.2,286046998.8,N
1649816215.0,286047000.6,N
1649816216.0,286047000.6,N
1649816235.8,286046998.3,N
1649816255.6,286046998.7,N
1649816275.5,286046998.7,N
1649816295.3,286046999.2,N
1649816315.1,286047000.6,N
1649816335.9,286046999.8,N
1649816355.7,286046999.7,N
1649816375.6,286047000.7,N
1649816395.4,286047001.2,N
1649816415.2,286047001.2,N
1649816435.1,286046998.1,N
1649816436.0,286046998.1,N
1649816455.8,286047000.4,N
1649816475.7,286047001.8,N
1649816495.5,286047001.5,N
1649816515.3,286047000.4,N
1649816535.2,286047001.2,N
1649816555.0,286047000.3,N
1649816555.9,286047000.3,N
1649816575.7,286046999.7,N
1649816595.6,286047000.0,N
1649816615.4,286046998.7,N
1649816635.3,286047000.8,N
1649816655.1,286047002.7,N
1649816656.0,286047002.7,N
1649816675.8,286047001.7,N
1649816695.7,286047003.6,N
1649816715.5,286047003.4,N
1649816735.4,286047005.8,Y
1649816755.2,286047005.9,P
1649816775.0,286047002.0,N
1649816775.9,286047002.0,N
1649816795.8,286047002.0,N
1649816815.6,286047003.2,N
1649816835.5,286047002.2,N
1649816855.3,286047002.3,N
1649816875.1,286047004.4,Y
1649816895.9,286047002.3,P
1649816915.7,286047001.5,P
1649816935.5,286047002.7,P
1649816955.4,286046998.8,N
1649816975.2,286046996.5,N
1649816995.1,286046997.7,N
1649816996.0,286046997.7,N
1649817015.8,286046997.4,N
1649817035.6,286046998.7,N
1649817055.5,286046998.1,N
1649817075.3,286047000.9,N
1649817095.1,286046998.2,N
1649817115.9,286047000.2,N
1649817135.7,286047001.6,N
1649817155.6,286047001.0,N
1649817175.4,286046998.8,N
1649817195.2,286047000.7,N
1649817215.1,286047001.2,N
1649817216.0,286047001.2,N
1649817235.8,286046998.7,N
1649817255.6,286046998.6,N
1649817275.5,286046998.8,N
1649817295.3,286046999.1,N
1649817315.1,286046998.8,N
1649817335.9,286046999.3,N
1649817355.7,286046996.5,N
1649817375.6,286046998.9,N
1649817395.4,286046996.6,N
1649817415.2,286046999.0,N
1649817435.1,286047000.6,N
1649817436.0,286047000.6,N
1649817455.8,286047001.1,N
1649817475.6,286047002.5,N
1649817495.5,286047001.9,N
1649817515.3,286047001.6,N
1649817535.2,286047000.9,N
1649817555.9,286047000.4,N
1649817575.7,286047001.2,N
1649817595.6,286046998.4,N
1649817615.4,286046998.4,N
1649817635.2,286047000.7,N
1649817655.1,286047000.5,N
1649817656.0,286047000.5,N
1649817675.8,286046999.3,N
1649817695.6,286046999.4,N
1649817715.5,286046999.4,N
1649817735.3,286046999.3,N
1649817755.2,286046999.0,N
1649817775.9,286046998.5,N
1649817795.7,286046996.9,N
1649817815.6,286046999.0,N
1649817835.4,286046996.6,N
1649817855.2,286046997.0,N
1649817875.1,286046998.7,N
1649817876.0,286046998.7,N
1649817895.8,286047000.6,N
1649817915.7,286047000.1,N
1649817935.5,286047001.4,N
1649817955.3,286046999.8,N
1649817975.2,286047000.0,N
1649817995.0,286047001.1,N
1649817995.9,286047001.1,N
1649818015.7,286046998.2,N
1649818035.6,286046998.5,N
1649818055.4,286046999.9,N
1649818075.3,286047002.7,N
1649818095.1,286047000.5,N
1649818096.0,286047000.5,N
1649818115.8,286047002.3,N
1649818135.7,286046999.7,N
1649818155.5,286047002.8,N
1649818175.3,286047000.6,N
1649818195.2,286047001.1,N
1649818215.0,286047001.2,N
1649818215.9,286047001.2,N
1649818235.8,286047000.1,N
1649818255.6,286047001.8,N
1649818275.4,286047001.0,N
1649818295.3,286047000.6,N
1649818315.1,286046998.3,N
1649818335.8,286047001.2,N
1649818355.7,286047001.1,N
1649818375.5,286047000.6,N
1649818395.4,286047001.1,N
1649818415.2,286047000.4,N
1649818435.0,286047000.6,N
1649818435.9,286047000.6,N
1649818455.8,286047001.0,N
1649818475.6,286047002.8,N
1649818495.4,286046998.1,N
1649818515.3,286046998.7,N
1649818535.1,286046998.9,N
1649818555.9,286046999.3,N
1649818575.7,286046998.7,N
1649818595.5,286047000.8,N
1649818615.4,286046999.2,N
1649818635.2,286046998.3,N
1649818655.0,286046999.2,N
1649818655.9,286046999.2,N
1649818675.8,286046999.5,N
1649818695.6,286046999.0,N
1649818715.5,286046998.7,N
1649818735.3,286046997.0,N
1649818755.1,286046997.3,N
1649818775.9,286046998.0,N
1649818795.7,286046997.1,N
